Precipitable_Water
0.25 0.18 0.16 0.15 0.16 0.17 0.19 0.20 0.20 0.22 0.21 0.23 0.22 0.19 0.18 0.19 0.20 0.24 0.25 0.28 0.30 0.23 0.20 0.21 0.20 0.20 0.20 0.21 0.21 0.23 0.26 0.26 0.31 0.34 0.35 0.37 0.37 0.39 0.41 0.42 0.42 0.41 0.41 0.49 0.54 0.57 0.58 0.59 0.60 0.61 0.61 0.61 0.60 0.59 0.57 0.55 0.54 0.50 0.47 0.49 0.50 0.54 0.55 0.50 0.45 0.44 0.43 0.41 0.42 0.44 0.43 0.45 0.50 0.53 0.55 0.57 0.60 0.63 0.63 0.60 0.58 0.56 0.55 0.55 0.56 0.58
0.24 0.17 0.16 0.18 0.19 0.19 0.21 0.24 0.25 0.25 0.25 0.24 0.23 0.22 0.21 0.22 0.21 0.25 0.26 0.30 0.31 0.23 0.21 0.23 0.21 0.21 0.22 0.22 0.23 0.24 0.23 0.24 0.26 0.30 0.35 0.38 0.39 0.39 0.40 0.40 0.41 0.43 0.50 0.53 0.54 0.58 0.60 0.61 0.61 0.61 0.61 0.61 0.56 0.57 0.56 0.53 0.53 0.50 0.48 0.48 0.50 0.53 0.54 0.51 0.46 0.45 0.45 0.45 0.41 0.38 0.41 0.45 0.49 0.47 0.46 0.47 0.52 0.56 0.57 0.56 0.52 0.49 0.49 0.49 0.49 0.52
0.17 0.15 0.18 0.21 0.23 0.25 0.25 0.26 0.28 0.26 0.25 0.26 0.24 0.25 0.23 0.24 0.26 0.29 0.29 0.34 0.32 0.27 0.23 0.25 0.21 0.22 0.24 0.25 0.25 0.25 0.25 0.27 0.28 0.29 0.31 0.34 0.37 0.38 0.39 0.41 0.44 0.46 0.47 0.51 0.53 0.56 0.58 0.60 0.60 0.60 0.61 0.61 0.59 0.58 0.56 0.55 0.54 0.51 0.49 0.49 0.52 0.55 0.55 0.52 0.50 0.49 0.48 0.49 0.47 0.42 0.43 0.45 0.45 0.51 0.48 0.46 0.48 0.50 0.49 0.51 0.51 0.51 0.50 0.49 0.51 0.53
0.15 0.20 0.25 0.29 0.29 0.26 0.26 0.27 0.29 0.27 0.27 0.26 0.25 0.23 0.22 0.26 0.25 0.23 0.29 0.32 0.33 0.29 0.26 0.26 0.22 0.23 0.25 0.27 0.27 0.27 0.28 0.28 0.31 0.32 0.33 0.36 0.36 0.39 0.40 0.42 0.43 0.45 0.46 0.47 0.49 0.50 0.54 0.57 0.58 0.60 0.60 0.61 0.60 0.59 0.57 0.56 0.53 0.52 0.50 0.51 0.54 0.56 0.58 0.53 0.51 0.52 0.51 0.49 0.50 0.49 0.48 0.52 0.48 0.43 0.48 0.48 0.50 0.51 0.50 0.49 0.51 0.53 0.51 0.52 0.51 0.54
0.18 0.25 0.31 0.30 0.31 0.30 0.27 0.29 0.28 0.26 0.23 0.26 0.25 0.26 0.25 0.25 0.27 0.26 0.27 0.31 0.33 0.34 0.33 0.29 0.26 0.24 0.26 0.24 0.25 0.28 0.31 0.30 0.31 0.33 0.34 0.36 0.38 0.39 0.42 0.45 0.48 0.45 0.44 0.45 0.49 0.51 0.53 0.53 0.54 0.56 0.59 0.61 0.57 0.57 0.57 0.57 0.54 0.53 0.52 0.54 0.56 0.58 0.59 0.55 0.53 0.53 0.50 0.49 0.49 0.49 0.51 0.53 0.49 0.47 0.46 0.45 0.45 0.49 0.51 0.50 0.50 0.50 0.48 0.46 0.49 0.53
0.19 0.26 0.29 0.26 0.26 0.27 0.27 0.29 0.29 0.28 0.24 0.25 0.29 0.29 0.29 0.29 0.27 0.29 0.30 0.29 0.27 0.27 0.31 0.28 0.21 0.20 0.26 0.27 0.26 0.28 0.30 0.30 0.34 0.33 0.33 0.34 0.35 0.38 0.40 0.41 0.45 0.48 0.50 0.47 0.46 0.47 0.49 0.51 0.54 0.58 0.59 0.57 0.57 0.56 0.59 0.60 0.57 0.56 0.55 0.56 0.58 0.60 0.61 0.56 0.53 0.53 0.48 0.45 0.44 0.42 0.42 0.40 0.40 0.39 0.40 0.38 0.39 0.42 0.44 0.46 0.51 0.50 0.48 0.49 0.50 0.52
0.21 0.26 0.27 0.25 0.25 0.26 0.26 0.26 0.33 0.34 0.29 0.27 0.28 0.33 0.31 0.30 0.29 0.28 0.28 0.27 0.23 0.21 0.29 0.33 0.22 0.20 0.26 0.26 0.28 0.29 0.30 0.31 0.33 0.33 0.33 0.34 0.33 0.35 0.36 0.38 0.41 0.44 0.46 0.50 0.51 0.51 0.50 0.53 0.55 0.56 0.55 0.55 0.55 0.58 0.62 0.62 0.59 0.58 0.58 0.58 0.60 0.61 0.60 0.58 0.55 0.52 0.49 0.45 0.44 0.40 0.39 0.40 0.40 0.39 0.42 0.44 0.47 0.45 0.48 0.50 0.50 0.48 0.50 0.51 0.49 0.51
0.24 0.24 0.25 0.27 0.27 0.26 0.25 0.24 0.31 0.33 0.30 0.26 0.33 0.33 0.32 0.29 0.27 0.27 0.26 0.26 0.25 0.30 0.30 0.31 0.28 0.22 0.21 0.26 0.29 0.31 0.29 0.29 0.29 0.30 0.32 0.34 0.34 0.35 0.36 0.37 0.37 0.41 0.43 0.44 0.47 0.50 0.51 0.53 0.52 0.51 0.51 0.54 0.56 0.60 0.63 0.62 0.61 0.59 0.59 0.60 0.61 0.63 0.62 0.60 0.57 0.52 0.49 0.44 0.44 0.41 0.39 0.41 0.41 0.41 0.42 0.44 0.46 0.49 0.50 0.48 0.47 0.48 0.49 0.51 0.52 0.50
0.21 0.20 0.22 0.25 0.29 0.28 0.25 0.27 0.33 0.36 0.31 0.30 0.34 0.34 0.30 0.29 0.28 0.27 0.26 0.26 0.26 0.25 0.22 0.26 0.30 0.22 0.21 0.25 0.30 0.30 0.26 0.25 0.24 0.26 0.29 0.31 0.32 0.32 0.33 0.34 0.35 0.38 0.41 0.43 0.45 0.47 0.50 0.52 0.52 0.51 0.52 0.56 0.59 0.61 0.60 0.61 0.62 0.63 0.62 0.62 0.63 0.64 0.65 0.62 0.57 0.52 0.49 0.46 0.45 0.43 0.41 0.41 0.43 0.46 0.47 0.48 0.49 0.47 0.49 0.45 0.47 0.46 0.47 0.50 0.51 0.51
0.23 0.22 0.23 0.27 0.28 0.27 0.31 0.34 0.36 0.36 0.29 0.33 0.34 0.34 0.32 0.31 0.29 0.27 0.25 0.24 0.25 0.23 0.19 0.23 0.26 0.19 0.19 0.24 0.24 0.26 0.23 0.20 0.22 0.26 0.27 0.29 0.31 0.32 0.31 0.32 0.34 0.37 0.40 0.44 0.46 0.46 0.47 0.50 0.50 0.51 0.55 0.58 0.59 0.61 0.64 0.65 0.65 0.64 0.63 0.61 0.62 0.64 0.65 0.63 0.56 0.51 0.48 0.47 0.46 0.45 0.42 0.40 0.42 0.47 0.50 0.50 0.47 0.48 0.47 0.42 0.43 0.45 0.45 0.46 0.47 0.50
0.22 0.26 0.29 0.25 0.25 0.31 0.33 0.35 0.34 0.32 0.31 0.34 0.30 0.27 0.26 0.26 0.26 0.26 0.25 0.23 0.21 0.17 0.19 0.23 0.25 0.22 0.18 0.22 0.21 0.20 0.21 0.21 0.25 0.26 0.28 0.31 0.31 0.32 0.31 0.31 0.33 0.35 0.39 0.42 0.45 0.46 0.46 0.50 0.54 0.57 0.55 0.57 0.61 0.63 0.64 0.64 0.64 0.65 0.63 0.61 0.60 0.64 0.67 0.65 0.57 0.52 0.48 0.49 0.48 0.46 0.45 0.43 0.43 0.46 0.48 0.48 0.47 0.47 0.46 0.41 0.40 0.41 0.43 0.46 0.45 0.48
0.20 0.23 0.24 0.26 0.29 0.31 0.33 0.30 0.32 0.33 0.32 0.27 0.24 0.22 0.23 0.22 0.23 0.22 0.22 0.23 0.16 0.14 0.18 0.20 0.20 0.22 0.16 0.19 0.21 0.25 0.26 0.26 0.27 0.27 0.29 0.30 0.31 0.31 0.30 0.32 0.34 0.36 0.38 0.42 0.45 0.47 0.50 0.53 0.55 0.57 0.58 0.59 0.61 0.63 0.63 0.64 0.65 0.64 0.63 0.62 0.60 0.63 0.65 0.65 0.60 0.54 0.52 0.52 0.51 0.51 0.50 0.47 0.47 0.48 0.48 0.47 0.46 0.46 0.44 0.42 0.39 0.41 0.42 0.42 0.46 0.48
0.17 0.16 0.22 0.25 0.30 0.29 0.29 0.25 0.26 0.27 0.27 0.24 0.23 0.23 0.18 0.17 0.17 0.15 0.18 0.14 0.14 0.13 0.17 0.18 0.20 0.16 0.16 0.18 0.21 0.26 0.27 0.27 0.29 0.31 0.31 0.31 0.31 0.31 0.32 0.34 0.36 0.39 0.41 0.42 0.44 0.47 0.51 0.51 0.52 0.54 0.57 0.60 0.61 0.61 0.62 0.62 0.64 0.65 0.65 0.64 0.62 0.63 0.67 0.67 0.64 0.57 0.55 0.54 0.53 0.51 0.49 0.48 0.50 0.50 0.50 0.50 0.49 0.49 0.45 0.44 0.41 0.40 0.38 0.41 0.41 0.45
0.18 0.21 0.20 0.21 0.24 0.28 0.26 0.21 0.22 0.21 0.23 0.23 0.21 0.21 0.18 0.15 0.14 0.12 0.13 0.15 0.15 0.17 0.20 0.18 0.22 0.15 0.19 0.22 0.26 0.26 0.29 0.31 0.33 0.34 0.34 0.33 0.33 0.34 0.35 0.36 0.36 0.36 0.40 0.46 0.47 0.48 0.50 0.52 0.54 0.56 0.57 0.57 0.59 0.61 0.62 0.63 0.64 0.66 0.67 0.67 0.65 0.65 0.71 0.72 0.68 0.62 0.58 0.57 0.56 0.54 0.51 0.50 0.51 0.51 0.52 0.52 0.51 0.50 0.48 0.47 0.43 0.41 0.40 0.40 0.41 0.42
0.14 0.15 0.19 0.21 0.19 0.27 0.26 0.25 0.25 0.24 0.23 0.23 0.24 0.21 0.20 0.18 0.15 0.12 0.13 0.12 0.13 0.15 0.18 0.24 0.17 0.16 0.15 0.21 0.29 0.31 0.34 0.36 0.37 0.37 0.37 0.36 0.36 0.37 0.38 0.39 0.40 0.39 0.38 0.41 0.47 0.51 0.53 0.53 0.54 0.56 0.58 0.59 0.60 0.61 0.62 0.64 0.65 0.68 0.68 0.70 0.69 0.69 0.72 0.73 0.70 0.67 0.63 0.61 0.60 0.58 0.56 0.53 0.53 0.52 0.53 0.54 0.54 0.52 0.49 0.49 0.47 0.45 0.44 0.43 0.43 0.44
0.16 0.15 0.21 0.26 0.26 0.27 0.26 0.29 0.29 0.26 0.24 0.26 0.26 0.26 0.22 0.20 0.23 0.16 0.18 0.17 0.16 0.16 0.17 0.19 0.18 0.23 0.23 0.33 0.34 0.34 0.34 0.33 0.34 0.34 0.34 0.35 0.36 0.37 0.37 0.37 0.38 0.41 0.42 0.44 0.45 0.48 0.54 0.59 0.59 0.58 0.59 0.59 0.60 0.62 0.65 0.65 0.66 0.67 0.68 0.71 0.72 0.71 0.73 0.74 0.73 0.70 0.67 0.65 0.64 0.62 0.58 0.56 0.55 0.54 0.54 0.55 0.57 0.55 0.53 0.51 0.50 0.49 0.48 0.46 0.46 0.48
0.19 0.16 0.22 0.25 0.27 0.26 0.26 0.28 0.27 0.27 0.20 0.24 0.23 0.20 0.22 0.26 0.23 0.19 0.20 0.22 0.21 0.18 0.16 0.22 0.21 0.24 0.30 0.32 0.32 0.33 0.31 0.31 0.32 0.32 0.32 0.34 0.36 0.38 0.37 0.39 0.39 0.39 0.42 0.46 0.49 0.51 0.53 0.57 0.61 0.64 0.64 0.62 0.63 0.65 0.66 0.66 0.67 0.66 0.69 0.72 0.73 0.75 0.76 0.75 0.75 0.73 0.71 0.69 0.68 0.65 0.62 0.60 0.57 0.54 0.52 0.53 0.55 0.55 0.55 0.55 0.55 0.53 0.51 0.50 0.49 0.49
0.17 0.18 0.25 0.24 0.23 0.29 0.31 0.30 0.28 0.27 0.27 0.25 0.21 0.25 0.30 0.34 0.28 0.21 0.15 0.17 0.17 0.14 0.16 0.20 0.18 0.20 0.20 0.18 0.29 0.29 0.28 0.30 0.30 0.31 0.32 0.33 0.34 0.35 0.38 0.39 0.40 0.40 0.40 0.41 0.46 0.53 0.56 0.58 0.60 0.62 0.66 0.70 0.72 0.73 0.70 0.68 0.68 0.70 0.73 0.73 0.74 0.76 0.75 0.76 0.76 0.75 0.74 0.72 0.70 0.69 0.65 0.63 0.61 0.57 0.54 0.55 0.55 0.57 0.56 0.56 0.57 0.57 0.53 0.51 0.51 0.50
0.24 0.17 0.21 0.26 0.27 0.29 0.33 0.31 0.28 0.29 0.31 0.25 0.24 0.33 0.23 0.21 0.19 0.24 0.20 0.15 0.15 0.14 0.15 0.18 0.20 0.20 0.20 0.20 0.25 0.25 0.26 0.27 0.27 0.29 0.30 0.30 0.32 0.33 0.35 0.36 0.38 0.40 0.41 0.41 0.41 0.43 0.50 0.56 0.58 0.62 0.67 0.71 0.71 0.71 0.73 0.77 0.79 0.78 0.77 0.78 0.78 0.75 0.77 0.79 0.79 0.77 0.78 0.77 0.75 0.72 0.69 0.65 0.64 0.62 0.59 0.59 0.59 0.58 0.56 0.56 0.58 0.57 0.56 0.56 0.55 0.52
0.27 0.18 0.20 0.27 0.26 0.30 0.31 0.29 0.23 0.26 0.31 0.31 0.31 0.27 0.29 0.25 0.22 0.20 0.23 0.24 0.21 0.16 0.16 0.15 0.18 0.16 0.21 0.21 0.24 0.24 0.26 0.26 0.26 0.26 0.26 0.28 0.29 0.31 0.33 0.35 0.37 0.37 0.38 0.38 0.39 0.40 0.42 0.48 0.57 0.61 0.64 0.68 0.69 0.70 0.73 0.73 0.74 0.75 0.79 0.80 0.79 0.82 0.85 0.86 0.84 0.81 0.78 0.79 0.78 0.76 0.74 0.71 0.69 0.67 0.63 0.61 0.60 0.59 0.57 0.57 0.59 0.59 0.58 0.57 0.57 0.54
0.26 0.27 0.17 0.25 0.29 0.27 0.22 0.27 0.25 0.26 0.25 0.27 0.27 0.25 0.26 0.25 0.29 0.25 0.25 0.21 0.18 0.15 0.15 0.13 0.12 0.16 0.20 0.25 0.25 0.25 0.26 0.27 0.27 0.26 0.27 0.27 0.29 0.32 0.33 0.33 0.35 0.36 0.37 0.38 0.38 0.38 0.40 0.42 0.48 0.57 0.63 0.66 0.69 0.72 0.74 0.74 0.75 0.77 0.80 0.81 0.83 0.82 0.84 0.85 0.86 0.84 0.81 0.81 0.80 0.77 0.74 0.72 0.71 0.69 0.68 0.65 0.64 0.62 0.62 0.62 0.63 0.63 0.62 0.62 0.58 0.57
0.25 0.25 0.20 0.23 0.22 0.21 0.22 0.27 0.29 0.28 0.28 0.28 0.28 0.26 0.27 0.25 0.23 0.19 0.18 0.25 0.22 0.19 0.16 0.15 0.13 0.19 0.25 0.32 0.29 0.28 0.30 0.29 0.29 0.29 0.29 0.29 0.31 0.33 0.33 0.34 0.35 0.35 0.37 0.38 0.38 0.39 0.39 0.41 0.44 0.51 0.60 0.64 0.67 0.69 0.71 0.73 0.76 0.80 0.81 0.83 0.85 0.86 0.86 0.85 0.86 0.86 0.84 0.84 0.82 0.80 0.77 0.75 0.73 0.71 0.69 0.66 0.64 0.64 0.64 0.64 0.65 0.66 0.66 0.62 0.60 0.59
0.26 0.26 0.22 0.19 0.22 0.23 0.26 0.30 0.30 0.31 0.30 0.29 0.27 0.28 0.30 0.29 0.26 0.22 0.17 0.18 0.22 0.22 0.23 0.21 0.18 0.19 0.31 0.34 0.33 0.32 0.31 0.31 0.31 0.31 0.30 0.30 0.31 0.33 0.34 0.36 0.37 0.37 0.38 0.39 0.39 0.40 0.41 0.43 0.44 0.46 0.50 0.57 0.63 0.67 0.70 0.72 0.74 0.76 0.78 0.80 0.82 0.83 0.85 0.87 0.87 0.89 0.89 0.87 0.85 0.82 0.80 0.79 0.76 0.72 0.70 0.67 0.65 0.63 0.64 0.65 0.66 0.67 0.65 0.63 0.62 0.61
0.30 0.21 0.18 0.19 0.23 0.25 0.27 0.27 0.28 0.28 0.26 0.24 0.24 0.25 0.24 0.22 0.22 0.22 0.22 0.23 0.21 0.22 0.20 0.20 0.17 0.21 0.33 0.36 0.34 0.34 0.33 0.33 0.33 0.32 0.31 0.31 0.30 0.30 0.32 0.35 0.36 0.37 0.39 0.40 0.41 0.42 0.42 0.44 0.45 0.47 0.47 0.49 0.53 0.61 0.67 0.71 0.73 0.74 0.76 0.79 0.81 0.82 0.85 0.89 0.89 0.89 0.89 0.88 0.88 0.86 0.83 0.80 0.78 0.75 0.72 0.70 0.69 0.66 0.66 0.67 0.68 0.69 0.66 0.64 0.63 0.61
0.18 0.21 0.19 0.16 0.16 0.17 0.18 0.20 0.19 0.22 0.21 0.19 0.19 0.22 0.23 0.23 0.22 0.22 0.21 0.24 0.18 0.20 0.21 0.19 0.15 0.21 0.32 0.35 0.37 0.34 0.33 0.31 0.31 0.32 0.32 0.29 0.29 0.30 0.31 0.33 0.35 0.36 0.37 0.39 0.39 0.39 0.40 0.41 0.41 0.42 0.44 0.46 0.48 0.49 0.55 0.65 0.70 0.73 0.74 0.77 0.78 0.81 0.86 0.89 0.90 0.88 0.87 0.88 0.89 0.89 0.86 0.82 0.81 0.77 0.73 0.72 0.72 0.70 0.69 0.68 0.68 0.69 0.67 0.66 0.65 0.64
0.21 0.21 0.19 0.13 0.11 0.09 0.09 0.10 0.11 0.13 0.15 0.18 0.19 0.19 0.20 0.20 0.19 0.18 0.15 0.17 0.14 0.17 0.20 0.18 0.17 0.25 0.32 0.33 0.34 0.35 0.32 0.31 0.31 0.31 0.30 0.30 0.28 0.28 0.29 0.31 0.33 0.33 0.34 0.35 0.37 0.38 0.39 0.41 0.42 0.42 0.42 0.42 0.43 0.47 0.50 0.51 0.58 0.69 0.76 0.80 0.83 0.83 0.84 0.86 0.87 0.85 0.84 0.85 0.86 0.87 0.87 0.87 0.85 0.81 0.77 0.75 0.76 0.74 0.72 0.70 0.69 0.68 0.68 0.68 0.65 0.65
0.23 0.24 0.22 0.20 0.17 0.15 0.16 0.16 0.18 0.19 0.17 0.13 0.15 0.17 0.18 0.19 0.20 0.19 0.18 0.16 0.14 0.16 0.16 0.17 0.19 0.22 0.27 0.28 0.28 0.29 0.28 0.27 0.27 0.26 0.26 0.26 0.28 0.30 0.30 0.30 0.31 0.32 0.34 0.34 0.35 0.37 0.38 0.38 0.39 0.41 0.42 0.43 0.43 0.44 0.45 0.49 0.52 0.54 0.61 0.72 0.83 0.88 0.89 0.90 0.92 0.89 0.85 0.84 0.84 0.84 0.84 0.86 0.85 0.85 0.83 0.80 0.80 0.81 0.77 0.72 0.71 0.70 0.69 0.70 0.68 0.64
0.24 0.21 0.22 0.21 0.20 0.20 0.20 0.19 0.20 0.20 0.17 0.17 0.17 0.17 0.19 0.18 0.18 0.17 0.16 0.15 0.18 0.16 0.12 0.16 0.19 0.17 0.18 0.23 0.26 0.26 0.27 0.28 0.29 0.28 0.27 0.28 0.29 0.30 0.31 0.32 0.32 0.32 0.32 0.33 0.33 0.33 0.34 0.37 0.43 0.46 0.47 0.45 0.44 0.45 0.44 0.44 0.47 0.51 0.53 0.57 0.64 0.72 0.82 0.89 0.91 0.92 0.92 0.91 0.88 0.86 0.85 0.85 0.84 0.85 0.88 0.88 0.85 0.85 0.83 0.76 0.73 0.72 0.73 0.72 0.68 0.65
0.23 0.20 0.23 0.23 0.22 0.23 0.23 0.22 0.23 0.22 0.21 0.20 0.20 0.19 0.19 0.20 0.19 0.17 0.17 0.19 0.19 0.17 0.14 0.16 0.19 0.17 0.18 0.21 0.23 0.23 0.24 0.26 0.27 0.28 0.30 0.32 0.33 0.33 0.32 0.31 0.30 0.29 0.30 0.30 0.31 0.32 0.32 0.32 0.34 0.36 0.39 0.43 0.45 0.44 0.43 0.41 0.39 0.42 0.48 0.53 0.58 0.65 0.70 0.76 0.80 0.86 0.91 0.92 0.91 0.92 0.95 0.94 0.91 0.88 0.88 0.91 0.89 0.86 0.84 0.77 0.73 0.74 0.73 0.70 0.67 0.66
0.25 0.22 0.23 0.23 0.21 0.22 0.23 0.23 0.24 0.22 0.22 0.22 0.21 0.21 0.22 0.21 0.20 0.19 0.18 0.20 0.19 0.18 0.18 0.18 0.19 0.19 0.20 0.23 0.24 0.24 0.26 0.27 0.28 0.30 0.32 0.31 0.31 0.32 0.31 0.31 0.30 0.30 0.30 0.30 0.31 0.31 0.31 0.31 0.32 0.33 0.35 0.36 0.38 0.40 0.40 0.40 0.39 0.38 0.39 0.44 0.49 0.55 0.63 0.69 0.72 0.76 0.82 0.87 0.91 0.93 0.94 0.95 0.94 0.92 0.90 0.88 0.89 0.88 0.88 0.81 0.76 0.74 0.73 0.70 0.68 0.67
0.24 0.21 0.25 0.24 0.21 0.20 0.22 0.23 0.24 0.23 0.22 0.20 0.22 0.22 0.22 0.22 0.22 0.21 0.20 0.20 0.21 0.19 0.18 0.18 0.18 0.17 0.22 0.25 0.26 0.28 0.29 0.30 0.31 0.30 0.30 0.31 0.31 0.31 0.31 0.30 0.30 0.30 0.30 0.30 0.29 0.28 0.29 0.30 0.31 0.32 0.32 0.32 0.33 0.34 0.36 0.37 0.37 0.38 0.37 0.38 0.41 0.44 0.52 0.59 0.62 0.67 0.70 0.74 0.81 0.86 0.91 0.93 0.92 0.90 0.89 0.89 0.92 0.89 0.91 0.91 0.83 0.80 0.79 0.75 0.72 0.68
0.25 0.22 0.26 0.24 0.19 0.18 0.22 0.22 0.23 0.23 0.22 0.21 0.20 0.21 0.21 0.21 0.20 0.20 0.19 0.20 0.19 0.17 0.18 0.18 0.16 0.15 0.21 0.26 0.29 0.31 0.30 0.29 0.28 0.29 0.29 0.29 0.30 0.30 0.29 0.29 0.29 0.28 0.28 0.29 0.29 0.29 0.29 0.29 0.29 0.30 0.31 0.32 0.33 0.34 0.34 0.34 0.35 0.35 0.36 0.37 0.36 0.38 0.43 0.48 0.52 0.55 0.60 0.65 0.69 0.73 0.78 0.80 0.80 0.81 0.84 0.89 0.95 0.97 0.96 0.90 0.85 0.82 0.79 0.75 0.70 0.67
0.22 0.21 0.20 0.20 0.18 0.16 0.19 0.22 0.21 0.21 0.20 0.16 0.16 0.19 0.20 0.21 0.21 0.21 0.22 0.22 0.21 0.20 0.17 0.15 0.15 0.19 0.24 0.28 0.26 0.28 0.29 0.28 0.28 0.29 0.28 0.28 0.30 0.30 0.29 0.29 0.29 0.29 0.29 0.29 0.28 0.28 0.29 0.29 0.30 0.31 0.31 0.31 0.32 0.33 0.34 0.36 0.35 0.34 0.34 0.33 0.34 0.35 0.35 0.38 0.42 0.46 0.50 0.55 0.59 0.61 0.66 0.72 0.74 0.75 0.77 0.78 0.81 0.91 0.90 0.88 0.83 0.81 0.77 0.73 0.70 0.67
0.23 0.22 0.19 0.21 0.16 0.14 0.17 0.19 0.20 0.17 0.12 0.11 0.18 0.22 0.22 0.19 0.19 0.18 0.18 0.18 0.20 0.21 0.19 0.21 0.20 0.24 0.26 0.28 0.27 0.27 0.27 0.27 0.27 0.29 0.31 0.30 0.30 0.30 0.30 0.30 0.29 0.28 0.28 0.28 0.29 0.29 0.29 0.30 0.32 0.33 0.34 0.34 0.35 0.35 0.37 0.38 0.36 0.35 0.35 0.35 0.34 0.34 0.33 0.34 0.36 0.39 0.41 0.45 0.50 0.53 0.55 0.60 0.65 0.69 0.73 0.75 0.75 0.76 0.84 0.89 0.85 0.83 0.77 0.72 0.68 0.66
0.20 0.20 0.18 0.20 0.16 0.14 0.16 0.17 0.15 0.11 0.10 0.18 0.22 0.24 0.24 0.23 0.21 0.19 0.19 0.20 0.21 0.23 0.23 0.22 0.23 0.24 0.27 0.29 0.29 0.30 0.29 0.30 0.30 0.29 0.30 0.33 0.33 0.29 0.25 0.24 0.24 0.24 0.24 0.24 0.24 0.26 0.27 0.28 0.29 0.31 0.31 0.32 0.34 0.34 0.35 0.34 0.36 0.36 0.34 0.34 0.34 0.35 0.35 0.35 0.36 0.36 0.38 0.40 0.43 0.48 0.51 0.53 0.59 0.65 0.69 0.71 0.71 0.71 0.73 0.79 0.80 0.75 0.71 0.68 0.66 0.64
0.19 0.18 0.19 0.18 0.18 0.18 0.15 0.15 0.11 0.10 0.17 0.20 0.23 0.24 0.26 0.23 0.22 0.19 0.18 0.20 0.23 0.24 0.24 0.22 0.24 0.27 0.28 0.29 0.31 0.32 0.32 0.31 0.30 0.29 0.31 0.35 0.32 0.28 0.27 0.26 0.27 0.27 0.26 0.26 0.27 0.27 0.28 0.29 0.30 0.31 0.32 0.33 0.33 0.32 0.33 0.32 0.33 0.32 0.31 0.34 0.34 0.34 0.36 0.36 0.36 0.36 0.38 0.39 0.42 0.46 0.50 0.53 0.56 0.61 0.64 0.66 0.69 0.71 0.72 0.74 0.73 0.68 0.67 0.65 0.64 0.65
0.21 0.20 0.19 0.16 0.19 0.13 0.13 0.13 0.12 0.16 0.16 0.18 0.20 0.22 0.23 0.20 0.21 0.19 0.15 0.17 0.24 0.27 0.26 0.26 0.28 0.29 0.29 0.29 0.31 0.32 0.33 0.31 0.26 0.26 0.33 0.32 0.30 0.30 0.29 0.29 0.29 0.28 0.28 0.29 0.31 0.30 0.32 0.33 0.33 0.34 0.34 0.34 0.33 0.32 0.31 0.31 0.32 0.32 0.32 0.31 0.32 0.35 0.35 0.36 0.35 0.35 0.38 0.40 0.42 0.44 0.48 0.53 0.56 0.59 0.65 0.70 0.70 0.70 0.70 0.72 0.68 0.68 0.66 0.61 0.61 0.60
0.23 0.18 0.20 0.17 0.16 0.18 0.14 0.13 0.13 0.13 0.11 0.14 0.23 0.31 0.34 0.33 0.31 0.29 0.23 0.20 0.29 0.32 0.35 0.32 0.29 0.29 0.30 0.30 0.30 0.31 0.32 0.24 0.21 0.22 0.27 0.30 0.30 0.29 0.29 0.30 0.31 0.30 0.30 0.30 0.31 0.32 0.33 0.35 0.36 0.36 0.34 0.33 0.32 0.33 0.34 0.33 0.33 0.33 0.32 0.31 0.33 0.34 0.35 0.36 0.35 0.37 0.40 0.41 0.43 0.46 0.48 0.52 0.57 0.60 0.68 0.71 0.71 0.72 0.69 0.67 0.64 0.59 0.58 0.58 0.58 0.57
0.23 0.23 0.22 0.19 0.17 0.18 0.17 0.14 0.13 0.12 0.14 0.22 0.27 0.31 0.36 0.36 0.34 0.32 0.23 0.20 0.29 0.31 0.32 0.33 0.30 0.29 0.30 0.29 0.29 0.30 0.26 0.21 0.20 0.23 0.27 0.28 0.28 0.30 0.29 0.29 0.29 0.30 0.30 0.30 0.30 0.30 0.32 0.33 0.34 0.33 0.33 0.33 0.32 0.34 0.36 0.36 0.37 0.35 0.33 0.34 0.35 0.37 0.36 0.35 0.37 0.40 0.42 0.44 0.46 0.48 0.51 0.55 0.58 0.60 0.66 0.70 0.71 0.73 0.69 0.65 0.59 0.59 0.61 0.61 0.59 0.57
0.20 0.21 0.22 0.19 0.17 0.18 0.17 0.15 0.14 0.17 0.16 0.28 0.31 0.33 0.37 0.38 0.37 0.30 0.18 0.19 0.29 0.32 0.33 0.34 0.32 0.31 0.30 0.30 0.30 0.28 0.25 0.21 0.21 0.24 0.29 0.29 0.30 0.31 0.30 0.29 0.28 0.28 0.28 0.30 0.31 0.32 0.33 0.33 0.33 0.31 0.31 0.32 0.34 0.37 0.38 0.39 0.38 0.38 0.37 0.38 0.40 0.39 0.36 0.37 0.40 0.45 0.48 0.50 0.51 0.54 0.56 0.59 0.61 0.65 0.68 0.70 0.71 0.71 0.68 0.66 0.63 0.63 0.62 0.59 0.57 0.53
0.18 0.19 0.20 0.17 0.19 0.19 0.19 0.18 0.19 0.20 0.29 0.31 0.31 0.34 0.36 0.37 0.32 0.21 0.16 0.22 0.33 0.35 0.35 0.36 0.35 0.34 0.34 0.33 0.33 0.27 0.28 0.28 0.28 0.29 0.32 0.32 0.31 0.30 0.31 0.31 0.30 0.31 0.31 0.31 0.32 0.34 0.34 0.33 0.33 0.32 0.33 0.34 0.37 0.39 0.41 0.42 0.41 0.40 0.40 0.41 0.39 0.37 0.39 0.42 0.46 0.49 0.51 0.53 0.54 0.55 0.57 0.60 0.63 0.64 0.69 0.75 0.72 0.68 0.65 0.66 0.63 0.59 0.56 0.53 0.50 0.48
0.17 0.18 0.19 0.20 0.18 0.18 0.20 0.18 0.18 0.22 0.30 0.32 0.34 0.35 0.36 0.28 0.19 0.18 0.28 0.34 0.33 0.32 0.34 0.35 0.34 0.35 0.34 0.33 0.32 0.31 0.31 0.32 0.32 0.32 0.32 0.32 0.32 0.31 0.31 0.32 0.32 0.31 0.33 0.34 0.35 0.35 0.34 0.33 0.33 0.34 0.35 0.38 0.39 0.41 0.43 0.45 0.43 0.42 0.42 0.41 0.39 0.41 0.46 0.47 0.49 0.52 0.54 0.55 0.56 0.57 0.57 0.60 0.63 0.67 0.67 0.67 0.64 0.62 0.60 0.58 0.56 0.53 0.50 0.46 0.44 0.42
0.17 0.15 0.15 0.16 0.20 0.20 0.19 0.17 0.17 0.14 0.29 0.33 0.33 0.29 0.34 0.22 0.24 0.28 0.30 0.31 0.32 0.32 0.32 0.33 0.33 0.33 0.34 0.32 0.33 0.32 0.32 0.32 0.32 0.31 0.32 0.33 0.33 0.32 0.32 0.32 0.31 0.30 0.29 0.30 0.32 0.34 0.34 0.32 0.32 0.33 0.35 0.39 0.42 0.45 0.47 0.47 0.44 0.43 0.43 0.40 0.40 0.45 0.49 0.51 0.52 0.54 0.56 0.57 0.56 0.56 0.57 0.58 0.61 0.65 0.61 0.60 0.59 0.58 0.54 0.53 0.50 0.48 0.46 0.42 0.39 0.36
0.22 0.16 0.16 0.18 0.21 0.16 0.16 0.15 0.16 0.23 0.27 0.33 0.29 0.23 0.27 0.27 0.29 0.30 0.31 0.29 0.32 0.31 0.30 0.30 0.31 0.32 0.32 0.31 0.31 0.31 0.31 0.31 0.31 0.31 0.31 0.31 0.32 0.33 0.34 0.33 0.33 0.32 0.31 0.32 0.34 0.33 0.33 0.33 0.34 0.35 0.38 0.42 0.45 0.47 0.49 0.49 0.46 0.44 0.43 0.42 0.46 0.49 0.51 0.53 0.53 0.54 0.56 0.57 0.57 0.55 0.55 0.58 0.61 0.59 0.59 0.57 0.52 0.50 0.46 0.45 0.46 0.45 0.43 0.40 0.36 0.34
0.21 0.17 0.20 0.15 0.21 0.17 0.15 0.18 0.23 0.26 0.27 0.28 0.30 0.27 0.28 0.30 0.33 0.34 0.32 0.29 0.28 0.29 0.31 0.29 0.28 0.29 0.30 0.30 0.30 0.30 0.29 0.29 0.30 0.31 0.29 0.28 0.28 0.29 0.31 0.31 0.32 0.32 0.32 0.32 0.32 0.34 0.35 0.34 0.34 0.37 0.40 0.44 0.47 0.49 0.51 0.52 0.48 0.46 0.45 0.49 0.52 0.52 0.55 0.55 0.55 0.55 0.56 0.57 0.57 0.57 0.62 0.61 0.59 0.58 0.56 0.52 0.48 0.46 0.45 0.46 0.46 0.43 0.42 0.40 0.38 0.36
0.22 0.22 0.23 0.20 0.18 0.21 0.22 0.22 0.23 0.23 0.23 0.25 0.27 0.27 0.27 0.29 0.31 0.31 0.29 0.27 0.27 0.28 0.29 0.27 0.28 0.28 0.29 0.30 0.29 0.29 0.29 0.29 0.29 0.29 0.29 0.28 0.29 0.30 0.33 0.34 0.33 0.34 0.34 0.35 0.35 0.35 0.36 0.38 0.39 0.40 0.41 0.45 0.48 0.51 0.53 0.54 0.53 0.51 0.53 0.57 0.58 0.60 0.60 0.58 0.57 0.56 0.56 0.57 0.60 0.61 0.59 0.58 0.54 0.52 0.51 0.49 0.50 0.50 0.49 0.47 0.44 0.42 0.41 0.40 0.38 0.36
0.20 0.21 0.19 0.16 0.19 0.16 0.12 0.18 0.18 0.19 0.21 0.22 0.23 0.25 0.27 0.28 0.27 0.27 0.26 0.26 0.26 0.26 0.26 0.27 0.27 0.27 0.28 0.29 0.29 0.29 0.29 0.30 0.29 0.28 0.28 0.29 0.29 0.31 0.33 0.33 0.33 0.34 0.34 0.34 0.36 0.37 0.38 0.40 0.40 0.41 0.44 0.45 0.49 0.52 0.55 0.58 0.62 0.63 0.63 0.64 0.65 0.65 0.65 0.61 0.58 0.57 0.59 0.62 0.60 0.61 0.59 0.54 0.50 0.49 0.49 0.50 0.50 0.49 0.46 0.44 0.43 0.42 0.41 0.39 0.37 0.34
0.16 0.24 0.18 0.18 0.18 0.15 0.15 0.19 0.20 0.21 0.22 0.23 0.23 0.21 0.22 0.23 0.25 0.26 0.26 0.26 0.26 0.27 0.27 0.27 0.28 0.27 0.28 0.27 0.28 0.29 0.29 0.30 0.29 0.28 0.28 0.30 0.31 0.33 0.34 0.34 0.35 0.35 0.36 0.38 0.38 0.40 0.42 0.43 0.43 0.44 0.47 0.48 0.51 0.56 0.62 0.65 0.67 0.69 0.69 0.69 0.69 0.68 0.67 0.65 0.63 0.61 0.62 0.62 0.61 0.58 0.54 0.49 0.48 0.48 0.48 0.48 0.47 0.46 0.45 0.44 0.43 0.41 0.38 0.36 0.33 0.30
0.18 0.22 0.15 0.18 0.17 0.19 0.21 0.21 0.21 0.22 0.22 0.22 0.23 0.23 0.23 0.23 0.24 0.24 0.26 0.27 0.27 0.26 0.26 0.27 0.28 0.27 0.27 0.27 0.28 0.30 0.30 0.29 0.30 0.30 0.30 0.31 0.33 0.34 0.35 0.36 0.37 0.37 0.38 0.38 0.39 0.42 0.43 0.45 0.46 0.48 0.50 0.51 0.57 0.66 0.68 0.69 0.70 0.71 0.70 0.69 0.68 0.67 0.66 0.64 0.64 0.64 0.63 0.61 0.57 0.53 0.52 0.52 0.52 0.49 0.47 0.46 0.46 0.45 0.43 0.42 0.40 0.37 0.35 0.33 0.31 0.28
0.22 0.18 0.21 0.20 0.17 0.16 0.16 0.16 0.20 0.16 0.15 0.19 0.21 0.22 0.23 0.24 0.24 0.24 0.24 0.24 0.24 0.23 0.24 0.24 0.25 0.28 0.29 0.29 0.30 0.31 0.30 0.30 0.31 0.32 0.31 0.31 0.33 0.34 0.36 0.38 0.38 0.38 0.39 0.41 0.43 0.45 0.47 0.48 0.49 0.50 0.51 0.54 0.62 0.68 0.68 0.68 0.68 0.69 0.69 0.70 0.69 0.68 0.64 0.63 0.61 0.59 0.57 0.55 0.53 0.52 0.51 0.50 0.48 0.46 0.44 0.44 0.42 0.41 0.41 0.42 0.39 0.34 0.30 0.29 0.30 0.30
0.20 0.20 0.20 0.18 0.17 0.15 0.18 0.19 0.21 0.22 0.21 0.21 0.21 0.23 0.24 0.24 0.24 0.24 0.23 0.23 0.23 0.24 0.25 0.26 0.26 0.26 0.27 0.29 0.32 0.32 0.31 0.31 0.30 0.32 0.31 0.31 0.33 0.36 0.38 0.39 0.38 0.38 0.39 0.42 0.44 0.46 0.48 0.49 0.51 0.52 0.53 0.58 0.65 0.67 0.67 0.67 0.67 0.68 0.69 0.69 0.68 0.65 0.61 0.58 0.55 0.53 0.50 0.49 0.48 0.49 0.47 0.46 0.44 0.43 0.43 0.42 0.41 0.40 0.38 0.36 0.35 0.35 0.34 0.33 0.32 0.31
Wind_Speed
9 10 10 12 12 13 13 13 13 12 11 10 9 9 11 11 12 13 13 13 12 11 13 14 15 14 15 16 16 15 14 15 15 15 15 16 17 17 18 19 19 20 19 19 19 19 19 18 18 17 16 15 15 15 15 15 15 14 14 14 13 13 13 12 12 12 12 12 12 12 12 12 12 12 13 13 13 13 13 13 13 14 14 15 16 17
10 11 13 13 14 13 13 13 13 11 10 10 10 10 11 11 12 13 12 13 12 11 12 13 13 14 16 17 17 15 13 13 14 15 15 17 18 19 20 20 19 19 18 19 20 20 19 19 18 18 17 16 16 16 16 15 15 14 14 14 13 13 12 12 12 12 12 11 11 11 11 11 11 12 12 12 12 13 12 12 12 12 13 14 15 15
10 12 14 14 12 11 11 11 11 11 10 10 11 11 11 12 13 13 13 13 11 10 12 12 11 14 17 17 17 16 14 15 15 16 17 18 19 19 20 20 19 19 19 20 21 21 20 20 19 18 17 17 17 16 16 16 15 15 14 14 13 13 12 12 12 12 11 11 11 11 11 11 11 11 12 11 11 11 11 11 11 12 12 12 13 14
11 12 12 11 10 11 11 11 11 11 11 12 11 11 12 13 12 13 14 14 13 12 12 11 11 14 15 15 16 16 15 16 16 17 18 19 20 21 22 21 21 21 21 21 22 22 21 20 20 19 18 18 17 17 17 16 16 15 14 14 14 13 13 12 12 12 12 11 11 11 11 11 11 11 11 10 10 10 10 10 11 11 11 12 13 13
13 13 11 10 10 11 12 12 12 13 14 14 13 13 13 14 14 15 15 15 14 14 13 12 12 14 14 14 16 15 14 16 17 16 18 20 21 22 23 23 23 23 23 23 23 22 22 21 20 20 19 18 18 18 18 17 16 15 15 15 14 13 13 12 12 12 12 11 11 11 11 11 11 10 11 10 10 9 9 10 10 10 10 11 12 12
14 14 12 12 12 12 13 14 14 14 14 15 15 14 14 15 15 15 15 14 14 15 15 14 14 15 14 14 16 16 14 16 17 17 19 21 21 22 23 24 24 24 24 24 24 23 23 22 20 19 19 19 18 19 18 17 17 16 16 15 15 14 13 13 13 13 12 12 12 11 12 11 11 10 11 10 10 9 9 9 9 9 9 9 10 11
13 13 11 12 13 12 13 14 14 13 13 14 15 15 14 13 14 14 14 13 14 16 16 14 15 16 15 15 16 16 16 18 18 19 21 23 21 21 23 24 24 24 25 24 24 24 23 22 20 19 19 19 18 18 18 18 18 17 17 16 15 15 14 13 13 14 13 12 12 12 12 12 11 11 12 11 10 10 10 10 10 10 9 9 9 9
12 12 11 11 12 12 13 14 14 13 12 15 16 13 13 14 14 14 14 14 15 16 16 14 14 16 17 17 17 16 17 20 21 21 22 24 24 23 24 24 24 23 24 23 23 23 23 22 21 20 19 18 17 17 17 18 18 18 17 17 16 16 15 14 14 14 14 13 13 13 13 13 12 12 12 12 12 11 11 11 11 11 10 10 9 9
12 12 13 12 11 11 13 14 14 12 13 16 15 13 14 14 14 13 13 14 15 14 15 16 14 15 17 18 17 16 18 20 21 21 22 23 24 23 23 24 24 23 22 23 23 23 22 22 21 20 19 18 17 17 17 17 17 18 18 17 17 16 16 15 15 15 15 14 14 14 13 13 13 13 13 13 13 13 13 12 12 12 11 11 11 10
13 13 13 11 10 12 13 13 13 13 14 15 13 13 13 13 12 12 13 14 14 14 16 17 15 15 16 17 15 15 17 18 18 18 19 21 22 21 21 22 22 22 21 22 23 23 22 22 21 19 18 18 18 17 17 17 17 18 18 18 18 18 17 15 15 16 15 15 15 15 14 14 13 13 13 13 13 14 13 13 13 13 13 12 12 12
15 14 13 11 12 12 12 12 12 13 13 12 11 12 13 13 12 12 13 12 13 15 17 18 16 15 16 16 14 14 14 15 15 15 16 18 19 18 18 19 20 21 20 20 21 22 21 20 19 19 18 18 18 18 18 17 17 17 18 18 18 18 17 16 16 16 16 15 15 15 15 14 14 14 14 14 14 14 14 14 14 14 13 13 13 13
14 14 14 13 13 11 10 11 12 12 12 11 11 11 12 13 12 12 13 12 13 15 16 16 15 15 16 16 14 14 14 14 14 15 15 16 16 15 15 16 18 20 21 20 20 21 20 19 19 19 19 19 18 19 19 18 17 17 17 17 18 18 17 17 17 17 17 16 16 16 16 15 15 15 15 15 15 15 15 14 14 14 14 14 13 13
12 13 14 14 13 11 10 12 13 13 12 11 11 10 11 12 11 12 13 12 13 15 15 14 13 14 16 15 14 14 14 15 15 15 15 14 12 12 11 12 15 17 19 20 20 20 20 19 20 20 20 20 19 19 20 19 19 18 17 17 17 18 17 17 17 17 17 17 17 17 16 16 16 16 16 16 16 16 15 15 15 14 14 14 14 14
10 12 12 12 13 12 11 12 13 13 12 12 12 12 12 11 11 13 13 12 13 14 14 13 13 13 13 12 13 13 13 13 14 14 13 10 9 9 9 9 12 15 17 19 20 20 20 20 20 21 21 20 20 20 20 20 19 19 18 18 18 18 18 17 17 18 18 18 18 17 17 17 17 17 17 17 17 16 16 16 15 15 15 14 15 14
10 11 11 10 11 11 10 11 12 12 12 13 13 12 12 12 12 13 13 13 14 14 13 13 12 12 10 10 12 14 13 12 12 13 12 10 9 8 7 8 9 12 15 17 19 20 21 21 21 21 21 20 20 20 20 20 20 19 19 19 20 19 19 18 18 18 18 18 18 18 18 18 17 17 17 17 17 17 17 16 16 16 15 15 15 15
11 13 13 12 11 10 10 11 11 11 11 13 13 12 13 14 13 13 13 13 13 13 13 13 12 12 10 11 13 14 13 11 11 11 11 12 10 7 8 9 8 10 13 16 19 21 22 22 21 21 21 21 20 20 20 20 20 20 20 20 20 20 20 19 19 19 19 19 18 18 18 18 18 18 18 18 18 17 17 17 16 16 16 16 16 16
11 13 14 13 12 11 11 12 12 12 12 12 12 13 14 13 12 12 13 13 11 12 14 13 13 13 11 11 13 12 11 11 11 10 10 12 11 8 9 10 10 9 10 12 15 18 20 21 21 22 21 21 20 20 21 21 21 21 21 20 21 20 20 20 20 20 19 19 19 19 19 19 19 19 18 18 18 18 17 17 17 17 17 17 17 16
12 14 14 12 12 13 12 11 12 13 12 12 13 14 14 13 11 12 12 12 11 13 14 13 14 14 12 12 14 12 10 10 11 9 8 9 9 9 11 11 11 10 9 10 10 12 16 19 21 21 21 20 20 21 21 21 21 22 21 21 21 21 21 21 21 20 20 20 20 20 20 20 20 20 19 19 19 19 18 18 18 18 18 18 18 18
12 14 16 13 13 15 14 12 13 14 13 13 14 14 13 13 13 13 12 13 13 13 14 14 14 15 15 15 14 13 12 11 11 10 9 9 9 9 10 11 11 11 11 11 10 11 13 16 19 21 21 21 20 20 21 21 21 22 22 23 22 22 22 22 21 21 21 21 21 21 21 21 21 21 21 21 20 20 19 19 19 19 19 19 19 19
13 14 16 15 14 15 14 13 14 15 14 13 13 13 13 13 14 14 14 14 14 14 15 15 14 15 16 16 15 15 15 14 13 12 11 11 11 10 10 10 11 12 13 13 13 13 13 14 16 19 21 21 21 21 21 21 22 22 23 23 23 23 23 23 23 23 22 22 22 22 22 22 22 22 22 22 21 21 21 20 20 20 20 20 20 20
14 14 16 17 15 15 15 15 14 14 14 14 14 14 15 14 14 15 15 15 14 15 15 15 16 16 17 16 15 16 16 16 14 13 13 13 12 12 12 12 12 12 13 14 15 15 15 15 15 16 18 20 21 22 23 23 23 23 23 24 25 25 25 24 24 24 24 23 22 22 23 23 23 23 22 22 22 22 21 21 21 21 21 21 21 21
16 16 17 18 17 17 17 18 17 16 16 15 17 17 17 16 15 15 16 16 16 16 16 15 17 18 17 16 16 16 16 17 15 14 14 14 13 12 13 13 13 13 13 14 15 15 16 16 15 15 16 18 19 21 23 25 25 25 26 26 27 26 26 26 25 25 25 24 23 23 23 23 24 23 23 23 23 22 22 22 22 22 21 21 22 22
17 17 18 19 20 19 20 20 19 19 17 16 17 19 18 18 17 17 18 18 18 19 18 16 17 19 18 18 17 16 17 17 17 15 15 15 14 14 14 14 14 14 14 14 15 16 17 17 17 17 17 18 20 21 23 24 25 26 27 27 27 27 28 27 27 27 26 26 25 25 24 24 24 24 24 23 23 23 22 22 22 22 22 22 22 22
18 18 18 20 20 20 21 21 20 20 18 17 19 19 18 19 19 19 20 20 20 21 19 18 19 20 19 19 18 18 18 18 18 17 16 16 16 15 15 15 15 15 15 16 16 17 17 18 19 19 19 19 20 21 23 24 25 26 27 27 27 28 29 29 28 28 28 28 28 27 26 25 25 25 25 25 24 24 24 23 23 23 23 23 23 23
19 19 18 19 19 20 20 19 19 20 19 19 20 20 19 19 19 19 20 20 22 23 21 20 21 21 20 20 19 19 19 19 19 18 17 17 17 17 16 16 16 16 16 16 17 18 18 18 19 19 20 20 21 21 22 23 25 26 27 28 29 30 30 30 30 29 29 29 29 29 28 27 27 27 27 27 26 26 25 25 24 24 24 24 24 24
20 20 19 19 19 20 19 19 20 20 20 20 20 20 20 20 20 21 21 20 22 23 22 22 22 21 21 22 21 20 20 20 21 21 20 19 19 19 19 19 19 18 18 18 19 20 20 20 20 21 21 22 22 22 22 22 24 25 27 29 30 31 31 31 31 31 31 31 31 31 31 30 29 29 29 28 28 28 27 27 26 26 26 25 25 25
19 19 19 19 20 21 21 22 21 20 21 22 21 20 21 21 20 20 20 21 23 23 24 25 24 23 24 24 24 23 23 23 23 23 22 22 21 21 21 21 21 20 20 21 21 22 22 23 23 23 23 24 24 24 24 24 24 25 26 27 29 31 31 32 32 33 33 33 33 32 32 31 31 31 31 31 30 30 29 28 28 27 27 26 26 26
19 21 21 20 22 23 22 23 22 21 22 23 22 21 21 22 21 21 22 23 22 22 26 27 24 25 27 27 26 26 25 25 25 24 23 23 23 23 23 23 22 22 23 23 24 24 25 25 26 26 26 27 26 26 26 26 26 26 26 27 27 28 30 32 33 33 33 33 33 33 33 33 33 33 33 33 32 32 31 31 30 29 28 28 27 27
19 22 23 22 24 24 24 24 24 23 23 23 23 23 22 22 23 23 24 24 22 24 28 27 25 27 28 27 28 28 27 28 27 26 25 25 25 25 24 24 24 25 25 25 26 26 26 26 27 27 28 28 28 28 28 29 29 29 29 29 29 29 30 31 32 34 35 35 35 35 34 34 34 34 35 35 35 35 35 33 32 31 30 30 29 29
20 22 23 23 24 25 25 25 24 24 25 25 24 24 23 23 24 24 25 24 24 26 28 27 28 30 29 28 29 29 28 28 28 27 26 26 26 26 26 26 26 26 26 27 27 28 27 27 28 28 29 30 30 31 31 31 31 32 32 32 32 32 32 32 33 34 35 36 37 37 37 36 36 36 37 38 38 37 36 34 33 32 32 31 30 29
20 22 23 22 23 25 25 24 24 24 25 26 26 25 24 24 24 25 24 24 24 27 28 27 28 30 29 29 29 29 28 26 26 26 26 26 26 26 26 27 27 27 27 28 28 28 29 29 29 30 30 31 32 33 33 34 34 34 34 34 34 35 35 35 35 36 36 37 38 38 39 39 39 39 39 39 37 36 36 34 32 31 31 30 29 29
21 23 23 22 24 27 25 25 26 25 26 28 28 27 26 25 25 25 24 24 25 26 26 26 27 28 28 27 27 26 25 24 24 25 26 26 26 26 26 26 27 27 28 28 29 29 30 30 31 31 32 32 33 33 34 35 35 36 36 37 37 37 37 38 38 38 38 38 39 39 40 40 41 41 41 40 38 36 36 35 33 32 32 31 31 31
22 23 24 23 25 28 26 25 26 25 26 29 28 26 25 25 25 25 25 25 25 24 24 25 26 26 25 24 24 24 23 23 24 25 25 26 26 25 25 26 27 28 29 29 30 30 31 31 32 32 33 33 34 34 35 36 36 37 38 38 39 39 39 40 40 40 41 40 40 40 41 41 41 42 42 40 39 38 37 36 35 34 32 32 32 32
23 24 25 24 26 28 27 24 24 25 27 28 26 24 24 24 24 24 24 25 24 23 23 23 23 23 22 22 22 23 24 24 25 26 26 26 26 25 26 27 28 29 29 30 30 31 31 32 33 33 34 34 35 35 36 37 37 38 39 39 39 40 40 40 41 42 42 42 41 41 41 41 41 41 41 39 37 37 37 36 35 34 33 32 32 32
23 23 24 24 25 27 25 22 23 26 27 25 24 23 23 22 21 22 23 23 22 21 21 21 22 22 22 22 23 23 24 25 25 26 26 26 25 25 26 28 28 29 30 30 30 31 32 33 33 34 35 35 36 36 37 38 38 39 40 40 40 40 41 41 41 42 42 42 42 42 42 41 41 41 40 38 37 37 36 36 37 36 35 35 33 33
21 21 22 22 23 24 22 21 23 25 25 25 24 23 22 22 21 21 23 23 22 22 22 23 23 24 24 24 24 24 25 25 26 26 26 26 26 26 27 28 29 29 30 31 31 32 33 34 34 35 36 36 37 37 38 38 39 39 40 40 40 41 41 41 42 42 42 42 42 42 42 42 42 41 40 39 38 37 37 37 37 37 36 35 34 33
20 19 20 21 22 22 22 23 24 25 26 25 23 22 21 22 22 22 23 24 24 23 23 22 23 24 24 25 25 25 25 24 25 25 26 26 27 27 28 28 29 30 31 31 32 33 34 34 35 36 36 37 38 38 39 39 39 40 40 40 40 41 41 42 42 42 42 42 42 42 41 41 41 40 40 39 37 36 36 36 37 36 36 35 34 33
19 19 19 20 20 20 21 22 22 22 23 22 21 21 21 21 22 22 21 21 22 22 21 21 23 24 24 25 26 25 24 24 25 25 26 27 27 28 28 29 30 31 32 32 33 34 34 35 36 36 37 38 39 39 39 40 41 41 41 41 40 40 41 42 42 42 42 42 42 41 40 40 40 39 39 38 37 35 35 35 35 35 35 34 33 33
19 18 18 18 19 19 19 21 20 20 21 21 21 22 21 21 22 20 18 20 22 22 22 22 24 24 25 25 25 24 23 24 25 25 26 27 27 28 29 30 31 32 32 33 34 34 35 36 37 37 38 39 39 40 40 40 41 41 41 41 40 41 41 42 42 41 41 41 41 41 40 40 40 40 39 38 36 35 33 33 33 33 33 32 32 32
18 18 17 18 20 19 19 20 20 19 20 20 20 21 20 20 18 17 17 20 22 22 22 22 23 24 24 24 23 22 23 25 25 26 26 27 28 28 29 31 31 32 33 34 34 35 36 37 37 38 39 39 40 40 40 40 40 40 41 40 40 41 42 42 41 41 40 40 40 40 39 39 39 38 37 36 35 34 33 32 31 31 30 30 30 31
18 18 17 17 18 19 19 20 20 20 20 21 20 20 20 19 17 17 19 20 21 21 21 21 23 23 23 23 24 24 25 26 27 27 27 28 29 30 31 32 33 33 34 34 35 35 36 37 38 39 40 40 40 40 39 39 40 40 40 40 40 41 41 41 40 40 39 38 37 37 38 37 36 35 34 34 33 32 31 30 29 30 30 30 30 30
17 17 18 18 18 18 18 19 19 19 20 21 21 20 20 19 18 20 21 21 21 22 22 22 24 24 24 25 26 26 27 28 29 30 30 30 31 32 32 32 33 33 34 34 35 36 37 38 39 39 39 39 39 39 38 39 39 39 39 39 40 40 39 39 38 37 36 35 34 34 35 34 32 32 32 32 31 29 29 28 28 28 29 28 28 29
17 18 18 19 19 19 18 18 18 19 19 19 19 19 19 19 20 22 22 22 22 23 23 24 25 26 26 27 28 29 30 30 31 32 32 32 32 32 33 33 33 34 35 35 35 36 37 38 38 38 38 38 37 37 37 38 38 38 38 38 39 38 37 36 34 33 31 30 30 30 29 28 28 29 29 29 28 27 27 26 25 25 25 25 26 27
18 18 19 19 18 18 18 18 18 19 20 20 20 20 21 22 23 23 23 24 24 25 25 26 27 28 28 29 30 31 32 32 33 33 33 34 33 33 34 34 34 35 35 36 36 37 37 37 37 36 36 36 35 35 35 35 35 35 36 36 36 35 34 32 30 28 27 26 26 25 24 25 25 26 26 25 24 24 23 22 21 22 22 23 24 26
19 19 20 21 21 21 22 23 22 22 23 23 23 24 25 26 25 24 24 26 27 27 27 28 29 30 30 31 32 33 33 34 34 34 34 35 35 34 35 35 35 36 36 36 37 37 36 35 35 34 34 33 33 32 32 31 30 31 31 31 30 29 29 28 26 25 24 23 22 22 22 23 24 23 23 22 21 19 19 19 19 20 21 21 22 24
22 21 21 23 24 24 25 26 26 25 25 25 26 27 28 28 27 27 28 29 29 30 30 30 31 32 33 33 34 34 35 35 35 35 36 36 36 36 36 36 36 36 36 36 36 35 34 33 32 31 31 30 29 28 27 26 25 25 24 24 24 23 23 23 23 23 22 21 22 22 22 22 22 20 19 19 18 17 17 17 18 18 19 19 20 21
22 22 22 23 24 25 25 26 25 26 27 28 29 30 29 29 29 30 31 32 32 32 32 33 34 34 34 35 36 36 37 37 37 37 37 36 36 36 36 35 35 35 34 34 33 32 31 30 29 28 27 26 24 23 22 20 19 18 17 16 15 15 17 18 20 20 20 21 22 22 21 20 20 18 17 16 16 16 16 16 16 16 17 17 18 18
22 22 23 24 25 25 26 27 27 29 30 30 30 30 29 30 31 31 32 32 33 33 34 34 35 35 35 36 36 37 38 37 37 37 37 36 35 35 34 33 32 31 31 30 30 29 28 27 26 24 22 20 19 17 15 14 13 12 10 8 8 11 14 16 18 19 20 21 22 21 20 19 18 16 15 14 14 14 14 14 14 14 15 15 16 17
22 23 23 24 25 26 27 27 27 28 29 28 28 29 29 30 31 32 32 32 33 34 35 35 35 35 35 36 36 36 36 36 35 35 34 34 32 31 30 29 29 28 28 28 28 27 25 24 22 20 17 16 14 12 10 8 7 5 6 8 11 14 16 18 19 20 21 21 21 20 19 17 15 14 13 13 12 12 12 12 12 12 13 13 14 15
21 22 23 24 25 26 26 26 26 26 27 28 28 29 29 30 31 32 32 32 33 34 34 35 35 34 34 34 33 33 33 33 32 32 31 30 29 28 27 27 27 26 26 26 25 24 22 21 18 16 14 13 11 9 8 6 7 9 12 14 17 18 18 19 19 19 20 20 19 18 16 15 13 12 11 11 11 10 10 9 9 9 10 11 12 13
21 23 23 24 25 26 27 28 28 27 28 29 30 30 30 30 31 32 32 32 32 32 32 32 32 32 31 30 30 29 30 30 29 29 28 27 26 25 25 25 25 24 24 23 22 21 20 17 15 14 13 12 10 9 7 10 14 15 15 16 18 17 16 17 17 17 17 17 16 15 14 13 12 11 10 10 9 8 7 7 7 7 8 10 11 13
Wind_Direction
241 244 247 242 241 240 237 231 231 236 236 241 246 246 251 254 257 258 260 265 261 258 259 247 240 246 246 247 249 250 248 244 245 248 246 242 239 238 237 238 237 239 241 242 242 244 246 248 249 251 252 255 258 256 254 252 253 255 254 254 254 255 258 258 253 249 246 246 247 248 247 247 247 248 250 253 255 256 257 257 256 256 254 252 250 250
246 246 246 240 237 236 237 235 233 236 239 246 249 252 258 254 256 260 259 268 268 258 262 253 243 247 247 246 249 253 252 244 239 242 243 241 240 240 239 241 242 245 247 245 244 246 247 248 250 251 251 252 254 252 249 248 249 251 251 251 252 253 255 255 252 248 246 247 248 247 245 245 246 247 249 251 253 255 256 257 256 255 254 252 250 250
253 249 246 240 235 234 240 239 236 237 240 249 253 254 258 256 260 265 262 267 268 257 258 256 247 247 249 248 250 252 251 248 242 239 241 241 242 244 245 247 248 249 248 245 244 245 246 247 248 249 250 251 252 249 246 247 248 249 249 250 252 253 254 254 250 248 248 248 247 247 245 245 245 247 248 249 251 253 255 256 256 255 254 252 251 249
247 243 240 236 231 233 243 244 240 243 247 250 251 252 257 259 262 264 264 267 267 259 255 253 251 251 251 251 252 252 253 255 251 244 242 243 244 247 248 250 249 247 247 245 243 244 245 245 247 248 250 251 250 247 246 246 247 248 247 248 250 252 253 252 249 248 249 247 247 248 247 247 247 247 247 248 250 252 253 254 255 255 255 254 252 250
242 242 243 241 236 236 243 247 243 243 250 254 250 248 255 261 261 260 264 268 267 265 260 258 262 258 255 255 254 256 259 259 258 255 252 250 249 249 250 251 250 248 246 243 242 243 244 244 244 245 248 249 247 245 245 246 246 247 246 247 249 250 250 251 249 246 246 244 244 245 246 247 247 246 246 247 248 252 252 252 254 256 256 255 252 249
246 247 248 248 246 241 241 248 246 241 248 257 253 250 253 258 260 263 267 269 265 265 263 260 261 259 258 258 254 256 261 260 261 262 261 260 258 253 252 252 251 250 248 245 242 241 243 243 242 243 245 246 245 243 243 244 244 245 245 246 247 248 248 250 248 245 244 243 242 243 244 245 245 244 245 246 247 250 252 252 253 254 254 254 251 248
248 251 252 248 248 245 243 249 249 242 246 256 254 251 253 257 259 261 263 262 259 259 261 258 252 257 262 259 255 259 263 263 264 265 264 265 265 258 254 253 250 249 247 244 242 241 241 240 239 241 243 242 242 242 241 242 242 243 244 245 245 247 248 249 248 244 243 242 242 244 246 246 246 245 246 248 249 250 253 255 254 254 254 254 252 249
250 258 263 254 251 248 246 250 248 241 243 254 256 251 252 256 257 258 257 256 257 258 263 263 254 257 263 260 260 265 268 268 269 268 266 266 266 262 256 252 249 246 243 239 238 239 239 238 238 239 239 239 240 240 240 240 241 242 242 243 244 246 248 249 248 244 242 241 242 243 246 247 247 246 247 249 250 251 253 254 255 256 257 258 256 253
251 255 259 255 254 253 250 249 244 240 248 255 254 251 254 256 256 257 254 254 259 258 260 263 258 259 264 263 267 271 270 270 270 269 268 266 266 264 258 251 246 243 239 235 235 237 238 238 238 238 238 238 238 238 239 239 240 241 241 242 242 244 247 248 247 244 242 241 241 242 245 247 247 248 248 249 250 252 253 253 254 256 257 259 258 255
252 249 250 249 251 254 255 252 241 239 252 257 253 255 263 264 261 261 255 254 260 258 255 259 258 258 263 266 271 273 269 267 265 265 266 264 266 268 262 252 244 240 237 234 233 235 236 236 236 237 238 239 239 239 238 239 241 241 241 241 241 242 244 246 246 244 243 242 241 242 243 246 247 247 248 250 251 253 254 254 255 256 257 257 258 257
258 255 250 248 248 248 250 251 246 246 253 258 259 263 267 267 263 261 258 256 260 260 258 258 255 254 261 267 268 268 266 263 262 265 267 264 270 277 270 254 243 237 234 233 232 233 234 234 235 236 238 239 239 239 238 239 241 240 240 240 240 241 242 244 245 244 243 243 241 241 243 246 248 247 248 250 251 253 255 255 256 257 257 256 256 256
268 260 253 254 252 247 250 256 258 261 262 261 263 263 261 261 260 260 263 261 258 262 264 261 256 252 256 264 267 267 267 261 258 263 267 267 274 285 280 259 243 236 232 230 231 233 233 233 234 235 237 239 239 238 237 237 239 239 239 240 240 241 242 244 244 243 243 243 242 243 245 248 249 249 250 250 251 253 255 255 256 257 258 257 256 255
270 260 259 261 257 249 251 259 264 270 269 260 258 258 255 258 261 260 262 260 257 264 266 260 256 255 256 261 265 266 266 262 259 263 266 267 276 288 284 262 244 238 237 235 234 233 232 234 235 235 236 238 239 239 238 237 237 238 239 238 238 240 242 244 244 243 244 245 244 245 246 249 250 251 252 252 252 253 255 255 256 257 258 258 258 257
276 273 270 264 260 256 250 252 259 265 263 255 252 252 250 253 260 260 260 262 262 265 265 258 257 260 261 264 264 262 266 269 269 269 268 270 277 283 286 273 252 244 242 241 241 238 235 236 237 237 237 238 239 240 239 238 238 239 239 238 237 239 241 243 244 244 246 247 247 247 248 249 250 251 252 253 254 255 255 256 256 257 258 258 258 258
269 273 268 256 259 262 256 250 249 254 260 259 256 252 249 248 252 256 256 257 260 263 265 262 258 256 254 258 262 263 267 271 270 270 275 281 280 279 285 288 275 259 249 244 243 242 240 240 239 239 237 238 239 239 238 238 238 240 240 239 238 238 240 242 243 245 247 248 249 249 249 250 251 252 253 254 255 256 256 257 257 258 258 259 259 259
266 265 261 258 259 259 259 258 253 256 263 263 257 253 253 251 249 255 256 253 256 262 264 260 256 255 253 257 264 263 263 267 268 272 281 282 281 284 284 282 285 279 264 251 245 242 243 243 242 241 238 238 239 237 237 238 238 240 241 240 239 239 240 242 243 245 247 249 249 250 250 251 251 252 253 254 254 256 257 257 259 259 259 260 260 260
266 266 264 263 262 260 260 262 262 261 260 261 259 256 257 256 250 255 261 262 262 262 262 257 255 260 259 259 266 265 264 273 276 276 280 279 278 281 279 277 281 284 278 266 253 244 241 242 243 244 242 242 243 240 238 238 239 240 240 240 240 240 241 243 244 246 248 250 250 251 251 251 252 252 252 253 253 255 257 258 260 260 260 260 260 260
261 265 266 258 255 262 263 264 269 268 259 256 258 258 262 265 259 256 261 267 267 261 262 258 253 256 254 254 264 266 265 275 278 276 280 285 285 278 272 272 274 276 279 277 265 251 246 244 243 242 242 244 246 245 243 242 242 242 241 241 241 241 242 243 245 248 249 251 251 252 252 252 252 253 253 253 254 255 256 258 259 260 260 260 260 260
264 265 267 258 253 264 269 263 265 271 265 254 253 258 261 261 261 262 260 261 262 261 265 265 258 255 251 251 256 257 256 264 273 276 276 280 282 278 273 270 270 271 272 273 270 263 259 256 250 245 243 243 245 245 243 243 245 245 244 244 243 243 244 245 247 249 251 252 253 253 253 253 254 254 255 255 254 255 256 257 258 259 260 260 260 260
269 266 268 265 258 264 271 265 259 264 266 259 257 261 262 256 256 261 259 256 256 258 263 268 266 260 254 250 248 249 253 258 265 270 268 268 271 273 274 272 270 269 269 270 269 267 266 267 263 254 247 245 244 243 243 244 247 246 245 246 246 246 247 248 249 250 252 253 254 254 255 254 255 255 256 256 255 254 256 257 259 260 260 260 260 260
274 268 266 268 266 263 265 261 255 256 260 260 259 262 265 263 261 262 261 258 256 258 260 264 267 264 259 254 249 249 254 257 259 262 262 263 265 267 269 271 272 272 270 269 268 268 268 270 270 262 253 249 247 245 246 248 248 247 245 246 248 248 248 248 250 251 253 254 254 255 255 255 255 256 256 256 255 254 256 257 259 260 260 260 260 260
272 269 266 269 269 264 260 258 255 255 257 257 257 258 260 261 261 260 262 261 259 259 259 259 265 266 261 258 256 253 255 257 257 257 261 265 266 265 266 266 269 273 272 270 269 269 268 267 269 266 259 256 253 251 251 250 250 249 249 248 248 248 248 248 250 251 252 253 254 254 255 255 255 255 255 254 254 254 255 257 259 260 261 260 261 261
269 270 269 268 267 263 260 261 260 259 260 261 260 259 257 258 257 255 258 262 261 261 261 261 265 265 260 260 260 257 256 256 256 257 259 264 267 268 267 264 264 267 268 269 268 268 267 265 266 268 266 263 262 260 257 253 251 251 251 250 249 248 248 249 250 251 252 253 254 254 254 254 254 254 253 253 253 254 255 257 259 260 261 262 262 263
271 270 270 270 270 269 267 265 263 263 263 264 264 263 258 257 256 254 255 259 260 260 260 261 264 262 258 260 260 258 259 259 261 261 259 260 264 266 266 266 265 265 265 265 265 265 266 266 266 267 268 268 268 266 262 258 256 254 253 253 252 251 250 250 250 251 251 252 253 254 254 254 254 253 253 253 254 255 256 257 258 260 261 262 263 264
271 269 269 271 273 273 273 270 267 266 263 260 261 262 260 259 259 260 261 261 261 260 256 256 262 259 255 259 261 260 263 266 267 265 262 263 266 265 265 265 264 265 265 264 264 265 265 265 265 265 266 269 271 270 267 264 262 259 257 257 255 254 252 251 250 250 250 250 251 253 254 255 254 253 253 254 255 256 257 257 258 259 260 262 263 264
269 267 267 267 267 267 268 267 264 263 262 261 260 260 262 263 262 263 264 261 260 262 258 256 260 258 255 261 264 262 264 267 267 266 267 268 267 266 265 265 265 265 265 265 265 265 264 265 265 267 269 271 271 270 270 268 266 264 263 261 258 256 253 252 252 251 250 250 250 252 254 254 254 253 253 254 256 256 257 257 258 259 260 261 263 264
267 267 265 262 262 263 264 264 264 263 263 263 262 260 261 262 262 262 262 259 258 262 262 258 257 258 257 260 263 263 263 262 263 266 268 267 266 265 264 265 266 267 267 267 267 267 267 267 267 268 271 272 272 272 271 270 269 268 266 264 261 257 254 253 253 253 252 251 251 252 253 253 254 254 254 254 256 256 257 257 259 260 260 261 262 264
268 270 268 262 263 263 263 265 267 266 264 263 263 260 258 259 259 258 258 259 258 260 262 261 257 258 259 258 260 263 264 262 264 267 267 265 266 267 267 267 269 269 270 270 270 270 270 269 268 267 269 271 272 272 272 271 271 270 268 266 263 260 257 255 254 253 253 253 253 253 253 254 255 256 256 255 255 256 256 257 258 259 260 260 261 263
266 269 269 267 268 267 265 265 267 267 265 264 262 260 258 257 257 257 257 258 256 256 260 261 257 257 259 259 260 263 263 264 266 267 266 266 268 269 270 270 271 272 272 272 272 272 272 270 268 267 267 268 268 269 270 270 270 270 269 268 266 264 262 260 257 256 255 254 254 255 255 256 257 257 256 255 254 254 255 255 256 258 259 260 261 263
268 270 270 269 271 271 270 268 267 266 266 265 264 262 260 258 257 258 260 259 256 257 260 260 258 259 260 260 261 264 265 265 266 267 268 269 270 271 271 271 271 272 272 272 272 272 270 269 268 267 268 268 267 267 268 268 268 268 268 268 267 265 264 263 261 260 258 256 255 255 256 257 258 258 257 256 254 253 251 252 254 256 258 258 260 262
273 271 271 272 273 271 270 271 270 267 266 266 266 264 261 260 260 262 263 261 260 261 263 262 263 263 262 261 262 266 268 266 267 269 269 269 269 270 271 271 271 271 272 272 272 272 271 270 270 270 270 270 269 268 268 268 268 268 267 267 267 266 265 264 262 262 261 259 258 258 257 257 258 258 257 256 255 252 249 249 251 253 254 257 258 261
273 272 273 275 274 271 271 272 272 272 272 269 266 264 262 262 263 264 264 261 259 260 262 264 265 264 264 263 264 267 268 266 267 269 268 268 269 269 270 271 272 272 273 274 273 273 273 273 272 272 272 272 271 270 270 270 269 268 268 267 267 266 266 265 263 262 261 261 260 260 259 258 258 258 257 256 256 253 249 247 248 250 253 257 259 261
270 271 273 273 272 271 273 273 272 274 273 269 265 262 261 263 265 266 265 262 258 257 259 260 261 261 262 263 264 266 267 266 265 266 266 268 269 269 269 271 273 274 275 275 274 274 274 273 273 273 273 273 272 271 271 271 270 270 269 268 268 268 267 266 264 263 262 261 260 260 260 259 258 257 257 256 255 254 250 246 246 249 253 257 260 262
269 269 270 269 269 271 273 274 273 271 268 268 267 264 262 263 263 262 263 261 259 258 258 258 259 259 260 260 259 261 263 264 265 265 267 268 268 269 271 273 275 276 276 275 275 274 274 274 273 273 273 273 273 273 272 272 271 271 270 269 269 268 267 267 265 263 262 261 260 260 260 259 258 256 255 254 253 253 249 245 245 249 253 258 261 262
270 268 269 268 266 269 271 270 269 268 267 271 274 271 266 263 261 260 263 262 258 257 258 259 259 259 259 259 258 259 262 265 267 267 268 268 267 270 273 275 276 277 276 277 276 276 276 276 275 275 274 274 274 274 274 273 273 272 271 270 269 268 267 267 265 264 262 260 259 259 258 258 257 255 254 252 251 250 247 245 247 250 254 258 260 262
269 269 269 268 265 267 267 261 261 267 272 274 276 273 269 267 266 266 268 266 262 260 260 261 261 261 259 258 258 260 262 265 268 268 267 267 268 270 272 274 276 277 277 278 278 277 278 278 277 277 276 276 276 275 275 275 274 273 272 270 269 268 266 265 265 263 262 260 259 258 257 257 256 254 252 250 249 247 246 247 248 251 254 256 258 260
267 270 271 269 265 263 262 260 264 272 275 274 273 271 269 268 267 265 265 266 266 264 262 259 260 261 260 260 261 261 262 264 268 268 267 266 269 271 272 274 275 277 278 278 279 279 279 279 279 279 278 278 278 277 276 276 275 274 272 271 270 269 267 265 264 263 261 259 258 257 257 256 254 252 249 247 246 246 246 247 249 251 253 254 256 258
268 268 268 268 267 264 262 264 267 270 270 269 269 268 267 266 264 261 262 266 267 264 260 256 257 259 260 261 263 262 263 266 267 268 269 270 271 272 274 275 277 278 279 279 280 280 280 280 280 280 280 280 278 278 277 277 275 274 272 271 271 270 268 266 264 263 261 259 257 256 255 255 252 249 246 244 243 244 245 247 249 250 252 253 255 258
275 271 267 266 267 265 261 262 264 265 265 266 267 268 269 268 264 262 265 265 263 263 262 259 259 261 260 262 264 264 267 269 267 268 272 273 273 274 275 278 279 280 280 280 280 280 280 280 281 281 281 280 279 279 278 277 275 274 272 272 271 270 269 267 265 264 262 259 257 255 253 252 250 247 244 242 241 241 243 246 248 250 251 252 254 257
277 275 271 266 266 265 262 262 264 265 266 267 267 268 271 271 267 265 266 264 262 265 265 260 260 263 263 263 265 265 266 267 267 270 275 276 276 277 278 280 281 282 282 282 281 281 281 281 282 282 281 280 280 279 278 276 275 273 272 271 270 269 268 267 265 264 262 259 255 253 251 250 248 245 242 240 239 241 242 245 247 248 249 251 254 256
276 274 270 266 266 266 263 264 266 266 267 268 268 270 272 273 269 263 261 262 263 267 268 264 262 265 266 266 266 266 266 268 271 275 278 279 279 280 281 281 282 282 282 282 282 283 283 283 283 282 282 281 281 280 278 276 274 273 271 271 270 269 268 267 265 263 260 257 252 250 249 247 244 241 239 237 236 237 240 243 245 247 249 252 255 257
276 273 270 267 268 268 266 265 268 269 267 267 269 272 273 270 265 262 262 264 265 267 269 268 266 268 269 270 269 269 270 273 275 277 279 280 280 281 282 283 283 283 282 282 283 284 285 285 284 283 282 281 280 279 278 276 274 272 271 270 269 268 268 266 263 260 256 252 248 245 243 241 238 237 235 233 231 233 237 241 244 247 251 253 255 257
272 273 272 268 267 269 269 269 269 268 267 269 271 274 273 268 265 265 266 268 268 270 271 270 270 271 272 272 272 273 274 275 276 278 280 280 280 281 282 282 282 282 283 283 284 285 286 286 285 284 282 281 280 280 279 277 274 273 271 270 269 269 267 263 259 255 250 245 241 237 235 233 231 229 227 226 228 230 234 238 242 246 251 254 257 260
272 270 270 269 267 267 267 267 265 264 267 272 272 271 271 270 269 269 269 270 271 272 272 273 273 274 274 274 275 275 276 277 278 279 280 281 281 281 281 282 282 283 283 283 284 286 287 287 285 284 283 282 281 281 280 278 276 273 271 270 269 266 262 256 251 246 240 234 230 228 225 222 219 218 218 219 222 226 230 235 240 247 253 258 261 262
271 269 267 268 268 267 265 265 266 268 270 272 272 271 272 272 271 269 269 271 272 273 273 275 276 276 276 276 276 276 277 278 279 280 280 281 281 281 282 282 283 283 283 283 284 286 287 286 285 284 283 282 281 281 280 278 276 274 272 270 268 261 253 245 238 231 225 220 217 214 211 209 209 210 212 213 217 223 229 236 243 251 256 259 262 263
272 272 271 270 271 272 270 268 269 270 270 271 272 273 274 273 271 271 272 273 273 274 275 276 276 277 277 277 276 276 277 278 279 280 281 281 282 282 282 282 282 282 282 282 284 285 286 285 284 283 283 282 280 280 280 279 277 275 272 270 264 252 239 228 220 213 208 204 202 201 200 200 202 205 207 211 217 225 233 240 247 253 257 259 262 264
275 275 273 272 273 274 272 271 271 272 271 272 273 275 274 273 272 273 274 275 275 275 276 276 277 277 277 277 276 276 277 279 280 281 281 282 282 282 282 283 282 282 281 282 283 284 284 283 282 282 282 280 280 281 280 277 276 273 269 264 252 232 216 205 198 195 193 192 193 194 194 194 196 198 203 210 218 227 235 242 248 252 256 260 264 267
277 277 275 272 270 270 271 273 274 274 273 273 273 273 274 274 274 275 276 276 277 277 277 277 277 277 277 277 276 276 277 278 279 280 281 281 281 281 281 281 281 281 281 281 282 282 281 280 280 280 278 276 279 280 275 271 271 267 257 241 212 190 181 178 178 180 181 182 183 184 185 188 191 196 204 212 219 227 235 242 247 253 258 263 267 271
277 277 276 274 274 274 274 274 275 276 275 274 273 273 274 275 275 276 277 278 278 278 278 278 277 277 277 277 276 276 276 277 278 279 280 280 280 280 279 279 280 280 280 281 281 280 279 278 277 274 269 269 272 269 261 259 257 233 190 165 155 152 152 155 159 163 167 171 174 177 181 187 193 198 204 210 217 225 233 240 247 254 262 268 272 276
277 277 277 276 277 277 276 275 275 276 276 276 275 275 275 276 277 277 278 279 279 279 279 279 278 278 277 276 276 276 276 277 277 278 278 278 278 277 277 278 279 280 281 281 280 277 274 272 268 260 257 260 257 247 241 225 186 160 148 144 143 143 145 148 152 157 162 166 170 174 178 183 187 191 195 202 212 222 232 241 250 259 268 275 280 285
275 276 276 276 277 277 277 277 276 275 275 276 277 276 276 278 279 278 279 280 280 280 279 279 279 278 277 276 276 275 275 276 277 277 277 276 275 275 276 277 278 280 280 279 276 272 269 264 254 247 249 247 237 227 211 180 164 155 149 147 146 147 149 152 155 160 164 166 169 173 176 179 182 187 195 205 214 222 231 243 259 274 285 291 295 297